Time,TemperatureF,DewpointF,PressureIn,WindDirection,WindDirectionDegrees,WindSpeedMPH,WindSpeedGustMPH,Humidity,HourlyPrecipIn,Conditions,Clouds,dailyrainin,SoftwareType,DateUTC
2013-05-26 00:01:00,52.2,15.2,30.21,North,0,0.0,0.0,23,0.00,,,0.00,WUHU216HW,2013-05-26 04:01:00,
2013-05-26 00:06:00,52.0,13.1,30.21,North,0,0.0,0.0,21,0.00,,,0.00,WUHU216HW,2013-05-26 04:06:00,
2013-05-26 00:11:00,51.8,14.0,30.21,North,0,0.0,0.0,22,0.00,,,0.00,WUHU216HW,2013-05-26 04:11:00,
2013-05-26 00:16:00,52.0,14.0,30.22,North,0,0.0,0.0,22,0.00,,,0.00,WUHU216HW,2013-05-26 04:16:00,
2013-05-26 00:21:00,52.6,14.5,30.22,North,0,0.0,0.0,22,0.00,,,0.00,WUHU216HW,2013-05-26 04:21:00,
2013-05-26 00:26:00,52.2,16.1,30.21,North,0,0.0,0.0,24,0.00,,,0.00,WUHU216HW,2013-05-26 04:26:00,
2013-05-26 00:31:00,51.7,22.0,30.22,North,0,0.0,0.0,31,0.00,,,0.00,WUHU216HW,2013-05-26 04:31:00,
2013-05-26 00:36:00,51.8,21.4,30.22,North,0,0.0,0.0,30,0.00,,,0.00,WUHU216HW,2013-05-26 04:36:00,
2013-05-26 00:41:00,52.0,19.7,30.22,North,0,0.0,0.0,28,0.00,,,0.00,WUHU216HW,2013-05-26 04:41:00,
2013-05-26 00:46:00,52.2,18.0,30.22,North,0,0.0,0.0,26,0.00,,,0.00,WUHU216HW,2013-05-26 04:46:00,
2013-05-26 00:51:00,52.2,18.0,30.22,North,0,0.0,0.0,26,0.00,,,0.00,WUHU216HW,2013-05-26 04:51:00,
2013-05-26 00:56:00,52.0,17.8,30.22,North,0,0.0,0.0,26,0.00,,,0.00,WUHU216HW,2013-05-26 04:56:00,
2013-05-26 01:01:00,52.0,18.8,30.22,North,0,0.0,0.0,27,0.00,,,0.00,WUHU216HW,2013-05-26 05:01:00,
2013-05-26 01:06:00,52.0,16.9,30.22,North,0,0.0,0.0,25,0.00,,,0.00,WUHU216HW,2013-05-26 05:06:00,
2013-05-26 01:11:00,51.7,16.6,30.22,North,0,0.0,0.0,25,0.00,,,0.00,WUHU216HW,2013-05-26 05:11:00,
2013-05-26 01:16:00,51.3,19.1,30.22,North,0,0.0,0.0,28,0.00,,,0.00,WUHU216HW,2013-05-26 05:16:00,
2013-05-26 01:21:00,51.1,19.8,30.22,North,0,0.0,0.0,29,0.00,,,0.00,WUHU216HW,2013-05-26 05:21:00,
2013-05-26 01:26:00,51.3,19.1,30.22,North,0,0.0,0.0,28,0.00,,,0.00,WUHU216HW,2013-05-26 05:26:00,
2013-05-26 01:31:00,51.1,18.0,30.22,North,0,0.0,0.0,27,0.00,,,0.00,WUHU216HW,2013-05-26 05:31:00,
2013-05-26 01:36:00,50.8,21.8,30.22,North,0,0.0,0.0,32,0.00,,,0.00,WUHU216HW,2013-05-26 05:36:00,
2013-05-26 01:41:00,50.8,18.6,30.22,North,0,0.0,0.0,28,0.00,,,0.00,WUHU216HW,2013-05-26 05:41:00,
2013-05-26 01:46:00,50.6,17.6,30.22,North,0,0.0,0.0,27,0.00,,,0.00,WUHU216HW,2013-05-26 05:46:00,
2013-05-26 01:51:00,50.2,17.2,30.22,North,0,0.0,0.0,27,0.00,,,0.00,WUHU216HW,2013-05-26 05:51:00,
2013-05-26 01:56:00,50.0,18.0,30.22,North,0,0.0,0.0,28,0.00,,,0.00,WUHU216HW,2013-05-26 05:56:00,
2013-05-26 02:01:00,50.4,17.4,30.22,North,0,0.0,0.0,27,0.00,,,0.00,WUHU216HW,2013-05-26 06:01:00,
2013-05-26 02:06:00,50.2,17.2,30.22,North,0,0.0,0.0,27,0.00,,,0.00,WUHU216HW,2013-05-26 06:06:00,
2013-05-26 02:11:00,49.9,16.9,30.22,North,0,0.0,0.0,27,0.00,,,0.00,WUHU216HW,2013-05-26 06:11:00,
2013-05-26 02:16:00,49.7,15.0,30.22,North,0,0.0,0.0,25,0.00,,,0.00,WUHU216HW,2013-05-26 06:16:00,
2013-05-26 02:21:00,49.7,15.0,30.22,North,0,0.0,0.0,25,0.00,,,0.00,WUHU216HW,2013-05-26 06:21:00,
2013-05-26 02:26:00,49.5,12.0,30.22,North,0,0.0,0.0,22,0.00,,,0.00,WUHU216HW,2013-05-26 06:26:00,
2013-05-26 02:31:00,49.0,6.7,30.22,North,0,0.0,0.0,18,0.00,,,0.00,WUHU216HW,2013-05-26 06:31:00,
2013-05-26 02:36:00,48.8,11.3,30.22,North,0,0.0,0.0,22,0.00,,,0.00,WUHU216HW,2013-05-26 06:36:00,
2013-05-26 02:41:00,48.8,9.5,30.22,North,0,0.0,0.0,20,0.00,,,0.00,WUHU216HW,2013-05-26 06:41:00,
2013-05-26 02:46:00,48.6,7.8,30.22,North,0,0.0,0.0,19,0.00,,,0.00,WUHU216HW,2013-05-26 06:46:00,
2013-05-26 02:51:00,48.6,3.4,30.22,North,0,0.0,0.0,16,0.00,,,0.00,WUHU216HW,2013-05-26 06:51:00,
2013-05-26 02:56:00,48.6,1.9,30.22,North,0,0.0,0.0,15,0.00,,,0.00,WUHU216HW,2013-05-26 06:56:00,
2013-05-26 03:01:00,48.4,1.8,30.22,North,0,0.0,0.0,15,0.00,,,0.00,WUHU216HW,2013-05-26 07:01:00,
2013-05-26 03:06:00,48.4,3.2,30.22,North,0,0.0,0.0,16,0.00,,,0.00,WUHU216HW,2013-05-26 07:06:00,
2013-05-26 03:11:00,48.2,0.2,30.21,North,0,0.0,0.0,14,0.00,,,0.00,WUHU216HW,2013-05-26 07:11:00,
2013-05-26 03:16:00,48.1,1.4,30.22,North,0,0.0,0.0,15,0.00,,,0.00,WUHU216HW,2013-05-26 07:16:00,
2013-05-26 03:21:00,48.2,0.2,30.21,North,0,0.0,0.0,14,0.00,,,0.00,WUHU216HW,2013-05-26 07:21:00,
2013-05-26 03:26:00,48.2,-2.8,30.21,North,0,0.0,0.0,12,0.00,,,0.00,WUHU216HW,2013-05-26 07:26:00,
2013-05-26 03:31:00,48.2,-4.3,30.21,North,0,0.0,0.0,11,0.00,,,0.00,WUHU216HW,2013-05-26 07:31:00,
2013-05-26 03:36:00,48.2,-2.8,30.21,North,0,0.0,0.0,12,0.00,,,0.00,WUHU216HW,2013-05-26 07:36:00,
2013-05-26 03:41:00,48.2,-2.8,30.21,North,0,0.0,0.0,12,0.00,,,0.00,WUHU216HW,2013-05-26 07:41:00,
2013-05-26 03:46:00,48.2,-5.8,30.21,North,0,0.0,0.0,10,0.00,,,0.00,WUHU216HW,2013-05-26 07:46:00,
2013-05-26 03:51:00,48.4,-2.7,30.20,North,0,0.0,0.0,12,0.00,,,0.00,WUHU216HW,2013-05-26 07:51:00,
2013-05-26 03:56:00,48.6,-4.0,30.20,North,0,0.0,0.0,11,0.00,,,0.00,WUHU216HW,2013-05-26 07:56:00,
2013-05-26 04:01:00,48.6,-2.5,30.20,North,0,0.0,0.0,12,0.00,,,0.00,WUHU216HW,2013-05-26 08:01:00,
2013-05-26 04:06:00,49.0,0.7,30.20,North,0,0.0,0.0,14,0.00,,,0.00,WUHU216HW,2013-05-26 08:06:00,
2013-05-26 04:11:00,49.1,3.9,30.20,North,0,0.0,0.0,16,0.00,,,0.00,WUHU216HW,2013-05-26 08:11:00,
2013-05-26 04:16:00,49.3,4.0,30.20,North,0,0.0,0.0,16,0.00,,,0.00,WUHU216HW,2013-05-26 08:16:00,
2013-05-26 04:21:00,49.5,1.2,30.20,North,0,0.0,0.0,14,0.00,,,0.00,WUHU216HW,2013-05-26 08:21:00,
2013-05-26 04:26:00,49.5,1.2,30.20,North,0,0.0,0.0,14,0.00,,,0.00,WUHU216HW,2013-05-26 08:26:00,
2013-05-26 04:31:00,49.3,7.0,30.21,North,0,0.0,0.0,18,0.00,,,0.00,WUHU216HW,2013-05-26 08:31:00,
2013-05-26 04:36:00,49.3,2.5,30.21,North,0,0.0,0.0,15,0.00,,,0.00,WUHU216HW,2013-05-26 08:36:00,
2013-05-26 04:41:00,49.3,7.0,30.22,North,0,0.0,0.0,18,0.00,,,0.00,WUHU216HW,2013-05-26 08:41:00,
2013-05-26 04:46:00,49.3,7.0,30.22,North,0,0.0,0.0,18,0.00,,,0.00,WUHU216HW,2013-05-26 08:46:00,
2013-05-26 04:51:00,49.3,5.5,30.22,North,0,0.0,0.0,17,0.00,,,0.00,WUHU216HW,2013-05-26 08:51:00,
2013-05-26 04:56:00,49.3,5.5,30.22,North,0,0.0,0.0,17,0.00,,,0.00,WUHU216HW,2013-05-26 08:56:00,
2013-05-26 05:01:00,49.3,-2.0,30.22,North,0,0.0,0.0,12,0.00,,,0.00,WUHU216HW,2013-05-26 09:01:00,
2013-05-26 05:06:00,49.3,4.0,30.22,North,0,0.0,0.0,16,0.00,,,0.00,WUHU216HW,2013-05-26 09:06:00,
2013-05-26 05:11:00,49.3,-2.0,30.22,North,0,0.0,0.0,12,0.00,,,0.00,WUHU216HW,2013-05-26 09:11:00,
2013-05-26 05:16:00,49.3,-3.5,30.22,North,0,0.0,0.0,11,0.00,,,0.00,WUHU216HW,2013-05-26 09:16:00,
2013-05-26 05:21:00,49.3,-2.0,30.22,North,0,0.0,0.0,12,0.00,,,0.00,WUHU216HW,2013-05-26 09:21:00,
2013-05-26 05:26:00,49.3,1.0,30.23,North,0,0.0,0.0,14,0.00,,,0.00,WUHU216HW,2013-05-26 09:26:00,
2013-05-26 05:31:00,49.3,1.0,30.22,North,0,0.0,0.0,14,0.00,,,0.00,WUHU216HW,2013-05-26 09:31:00,
2013-05-26 05:36:00,49.3,1.0,30.22,North,0,0.0,0.0,14,0.00,,,0.00,WUHU216HW,2013-05-26 09:36:00,
2013-05-26 05:41:00,49.3,-2.0,30.22,North,0,0.0,0.0,12,0.00,,,0.00,WUHU216HW,2013-05-26 09:41:00,
2013-05-26 05:46:00,49.5,-3.4,30.22,North,0,0.0,0.0,11,0.00,,,0.00,WUHU216HW,2013-05-26 09:46:00,
2013-05-26 05:51:00,49.7,-4.8,30.23,North,0,0.0,0.0,7,0.00,,,0.00,WUHU216HW,2013-05-26 09:51:00,
2013-05-26 05:56:00,49.7,-4.8,30.23,North,0,0.0,0.0,6,0.00,,,0.00,WUHU216HW,2013-05-26 09:56:00,
2013-05-26 06:01:00,49.7,-4.8,30.24,North,0,0.0,0.0,10,0.00,,,0.00,WUHU216HW,2013-05-26 10:01:00,
2013-05-26 06:06:00,49.7,-3.2,30.23,North,0,0.0,0.0,11,0.00,,,0.00,WUHU216HW,2013-05-26 10:06:00,
2013-05-26 06:11:00,49.9,-3.1,30.23,North,0,0.0,0.0,11,0.00,,,0.00,WUHU216HW,2013-05-26 10:11:00,
2013-05-26 06:16:00,50.0,-3.0,30.23,North,0,0.0,0.0,11,0.00,,,0.00,WUHU216HW,2013-05-26 10:16:00,
2013-05-26 06:21:00,50.2,-4.3,30.24,North,0,0.0,0.0,10,0.00,,,0.00,WUHU216HW,2013-05-26 10:21:00,
2013-05-26 06:26:00,50.2,-2.9,30.24,North,0,0.0,0.0,11,0.00,,,0.00,WUHU216HW,2013-05-26 10:26:00,
2013-05-26 06:31:00,50.4,-4.2,30.24,North,0,0.0,0.0,10,0.00,,,0.00,WUHU216HW,2013-05-26 10:31:00,
2013-05-26 06:36:00,50.4,-4.2,30.24,North,0,0.0,0.0,7,0.00,,,0.00,WUHU216HW,2013-05-26 10:36:00,
2013-05-26 06:41:00,50.6,-4.0,30.25,North,0,0.0,0.0,7,0.00,,,0.00,WUHU216HW,2013-05-26 10:41:00,
2013-05-26 06:46:00,50.6,-4.0,30.25,North,0,0.0,0.0,8,0.00,,,0.00,WUHU216HW,2013-05-26 10:46:00,
2013-05-26 06:51:00,50.8,-4.0,30.25,North,0,0.0,0.0,8,0.00,,,0.00,WUHU216HW,2013-05-26 10:51:00,
2013-05-26 06:56:00,50.8,-4.0,30.25,North,0,0.0,0.0,6,0.00,,,0.00,WUHU216HW,2013-05-26 10:56:00,
2013-05-26 07:01:00,50.9,-3.8,30.26,North,0,0.0,0.0,9,0.00,,,0.00,WUHU216HW,2013-05-26 11:01:00,
2013-05-26 07:06:00,50.9,-0.7,30.26,North,0,0.0,0.0,12,0.00,,,0.00,WUHU216HW,2013-05-26 11:06:00,
2013-05-26 07:11:00,51.1,-0.6,30.25,North,0,0.0,0.0,12,0.00,,,0.00,WUHU216HW,2013-05-26 11:11:00,
2013-05-26 07:16:00,51.5,2.7,30.26,North,0,0.0,0.0,14,0.00,,,0.00,WUHU216HW,2013-05-26 11:16:00,
2013-05-26 07:21:00,51.5,4.2,30.26,North,0,0.0,0.0,15,0.00,,,0.00,WUHU216HW,2013-05-26 11:21:00,
2013-05-26 07:26:00,51.7,2.9,30.26,North,0,0.0,0.0,14,0.00,,,0.00,WUHU216HW,2013-05-26 11:26:00,
2013-05-26 07:31:00,51.8,3.0,30.26,North,0,0.0,0.0,14,0.00,,,0.00,WUHU216HW,2013-05-26 11:31:00,
2013-05-26 07:35:00,52.2,3.2,30.26,North,0,0.0,0.0,14,0.00,,,0.00,WUHU216HW,2013-05-26 11:35:00,
2013-05-26 07:41:00,52.2,4.8,30.26,North,0,0.0,0.0,15,0.00,,,0.00,WUHU216HW,2013-05-26 11:41:00,
2013-05-26 07:45:00,52.4,5.0,30.26,North,0,0.0,0.0,15,0.00,,,0.00,WUHU216HW,2013-05-26 11:45:00,
2013-05-26 07:50:00,52.6,0.5,30.27,North,0,0.0,0.0,12,0.00,,,0.00,WUHU216HW,2013-05-26 11:50:00,
2013-05-26 07:55:00,52.6,3.6,30.27,North,0,0.0,0.0,14,0.00,,,0.00,WUHU216HW,2013-05-26 11:55:00,
2013-05-26 08:00:00,52.7,3.7,30.27,North,0,0.0,0.0,14,0.00,,,0.00,WUHU216HW,2013-05-26 12:00:00,
2013-05-26 08:05:00,52.9,3.9,30.27,North,0,0.0,0.0,14,0.00,,,0.00,WUHU216HW,2013-05-26 12:05:00,
2013-05-26 08:10:00,53.1,2.5,30.27,North,0,0.0,0.0,13,0.00,,,0.00,WUHU216HW,2013-05-26 12:10:00,
2013-05-26 08:15:00,53.3,1.1,30.27,North,0,0.0,0.0,12,0.00,,,0.00,WUHU216HW,2013-05-26 12:15:00,
2013-05-26 08:20:00,53.6,1.5,30.27,North,0,0.0,0.0,12,0.00,,,0.00,WUHU216HW,2013-05-26 12:20:00,
2013-05-26 08:25:00,53.8,1.5,30.27,North,0,0.0,0.0,12,0.00,,,0.00,WUHU216HW,2013-05-26 12:25:00,
2013-05-26 08:30:00,54.4,2.0,30.27,North,0,0.0,0.0,12,0.00,,,0.00,WUHU216HW,2013-05-26 12:30:00,
2013-05-26 08:35:00,54.7,3.8,30.27,North,0,0.0,0.0,13,0.00,,,0.00,WUHU216HW,2013-05-26 12:35:00,
2013-05-26 08:40:00,55.1,10.3,30.27,North,0,0.0,0.0,17,0.00,,,0.00,WUHU216HW,2013-05-26 12:40:00,
2013-05-26 08:45:00,55.4,12.1,30.27,North,0,0.0,0.0,18,0.00,,,0.00,WUHU216HW,2013-05-26 12:45:00,
2013-05-26 08:50:00,55.6,15.3,30.27,North,0,0.0,0.0,20,0.00,,,0.00,WUHU216HW,2013-05-26 12:50:00,
2013-05-26 08:55:00,56.0,15.6,30.27,North,0,0.0,0.0,20,0.00,,,0.00,WUHU216HW,2013-05-26 12:55:00,
2013-05-26 09:00:00,56.3,15.8,30.27,North,0,0.0,0.0,20,0.00,,,0.00,WUHU216HW,2013-05-26 13:00:00,
2013-05-26 09:05:00,56.7,16.1,30.27,North,0,0.0,0.0,20,0.00,,,0.00,WUHU216HW,2013-05-26 13:05:00,
2013-05-26 09:10:00,57.2,19.5,30.27,North,0,0.0,0.0,23,0.00,,,0.00,WUHU216HW,2013-05-26 13:10:00,
2013-05-26 09:15:00,57.6,25.5,30.27,North,0,0.0,0.0,29,0.00,,,0.00,WUHU216HW,2013-05-26 13:15:00,
2013-05-26 09:20:00,58.0,25.8,30.28,North,0,0.0,0.0,29,0.00,,,0.00,WUHU216HW,2013-05-26 13:20:00,
2013-05-26 09:25:00,58.5,27.9,30.28,North,0,0.0,0.0,31,0.00,,,0.00,WUHU216HW,2013-05-26 13:25:00,
2013-05-26 09:30:00,59.0,29.2,30.28,North,0,0.0,0.0,32,0.00,,,0.00,WUHU216HW,2013-05-26 13:30:00,
2013-05-26 09:35:00,59.4,32.9,30.28,North,0,0.0,0.0,37,0.00,,,0.00,WUHU216HW,2013-05-26 13:35:00,
2013-05-26 09:40:00,59.8,39.4,30.28,North,0,0.0,0.0,47,0.00,,,0.00,WUHU216HW,2013-05-26 13:40:00,
2013-05-26 09:45:00,59.9,40.1,30.28,North,0,0.0,0.0,48,0.00,,,0.00,WUHU216HW,2013-05-26 13:45:00,
2013-05-26 09:50:00,60.3,39.9,30.28,North,0,0.0,0.0,47,0.00,,,0.00,WUHU216HW,2013-05-26 13:50:00,
2013-05-26 09:55:00,60.7,40.2,30.28,North,0,0.0,0.0,47,0.00,,,0.00,WUHU216HW,2013-05-26 13:55:00,
2013-05-26 10:00:00,60.8,41.6,30.28,North,0,0.0,0.0,49,0.00,,,0.00,WUHU216HW,2013-05-26 14:00:00,
2013-05-26 10:05:00,61.2,43.4,30.28,North,0,0.0,0.0,52,0.00,,,0.00,WUHU216HW,2013-05-26 14:05:00,
2013-05-26 10:10:00,61.2,43.9,30.28,North,0,0.0,0.0,53,0.00,,,0.00,WUHU216HW,2013-05-26 14:10:00,
2013-05-26 10:15:00,61.2,44.4,30.28,North,0,0.0,0.0,54,0.00,,,0.00,WUHU216HW,2013-05-26 14:15:00,
2013-05-26 10:20:00,61.4,44.1,30.28,North,0,0.0,0.0,53,0.00,,,0.00,WUHU216HW,2013-05-26 14:20:00,
2013-05-26 10:25:00,61.7,44.4,30.28,North,0,0.0,0.0,53,0.00,,,0.00,WUHU216HW,2013-05-26 14:25:00,
2013-05-26 10:30:00,62.3,44.9,30.28,North,0,0.0,0.0,53,0.00,,,0.00,WUHU216HW,2013-05-26 14:30:00,
2013-05-26 10:35:00,62.5,46.0,30.28,North,0,0.0,0.0,55,0.00,,,0.00,WUHU216HW,2013-05-26 14:35:00,
2013-05-26 10:40:00,62.6,46.6,30.28,North,0,0.0,0.0,56,0.00,,,0.00,WUHU216HW,2013-05-26 14:40:00,
2013-05-26 10:45:00,62.6,47.2,30.28,North,0,0.0,0.0,57,0.00,,,0.00,WUHU216HW,2013-05-26 14:45:00,
2013-05-26 10:50:00,62.5,47.0,30.27,North,0,0.0,0.0,57,0.00,,,0.00,WUHU216HW,2013-05-26 14:50:00,
2013-05-26 10:55:00,63.0,47.4,30.27,North,0,0.0,0.0,57,0.00,,,0.00,WUHU216HW,2013-05-26 14:55:00,
2013-05-26 11:00:00,63.0,47.4,30.27,North,0,0.0,0.0,57,0.00,,,0.00,WUHU216HW,2013-05-26 15:00:00,
2013-05-26 11:05:00,63.0,47.4,30.27,North,0,0.0,0.0,57,0.00,,,0.00,WUHU216HW,2013-05-26 15:05:00,
2013-05-26 11:10:00,63.0,47.4,30.27,North,0,0.0,0.0,57,0.00,,,0.00,WUHU216HW,2013-05-26 15:10:00,
2013-05-26 11:15:00,63.0,47.4,30.27,North,0,0.0,0.0,57,0.00,,,0.00,WUHU216HW,2013-05-26 15:15:00,
2013-05-26 11:20:00,63.0,47.4,30.27,North,0,0.0,0.0,57,0.00,,,0.00,WUHU216HW,2013-05-26 15:20:00,
2013-05-26 11:25:00,63.2,47.6,30.26,North,0,0.0,0.0,57,0.00,,,0.00,WUHU216HW,2013-05-26 15:25:00,
2013-05-26 11:30:00,63.4,47.8,30.26,North,0,0.0,0.0,57,0.00,,,0.00,WUHU216HW,2013-05-26 15:30:00,
2013-05-26 11:35:00,63.7,48.2,30.26,North,0,0.0,0.0,57,0.00,,,0.00,WUHU216HW,2013-05-26 15:35:00,
2013-05-26 11:40:00,63.7,47.6,30.26,North,0,0.0,0.0,56,0.00,,,0.00,WUHU216HW,2013-05-26 15:40:00,
2013-05-26 11:45:00,64.4,48.2,30.25,North,0,0.0,0.0,56,0.00,,,0.00,WUHU216HW,2013-05-26 15:45:00,
2013-05-26 11:50:00,64.8,45.7,30.25,North,0,0.0,0.0,50,0.00,,,0.00,WUHU216HW,2013-05-26 15:50:00,
2013-05-26 11:55:00,65.2,47.5,30.26,North,0,0.0,0.0,53,0.00,,,0.00,WUHU216HW,2013-05-26 15:55:00,
2013-05-26 12:00:00,65.2,47.5,30.26,North,0,0.0,0.0,53,0.00,,,0.00,WUHU216HW,2013-05-26 16:00:00,
2013-05-26 12:05:00,65.3,48.3,30.25,North,0,0.0,0.0,54,0.00,,,0.00,WUHU216HW,2013-05-26 16:05:00,
2013-05-26 12:10:00,65.9,47.3,30.25,North,0,0.0,0.0,51,0.00,,,0.00,WUHU216HW,2013-05-26 16:10:00,
2013-05-26 12:15:00,66.2,49.6,30.25,North,0,0.0,0.0,55,0.00,,,0.00,WUHU216HW,2013-05-26 16:15:00,
2013-05-26 12:20:00,67.0,49.2,30.25,North,0,0.0,0.0,53,0.00,,,0.00,WUHU216HW,2013-05-26 16:20:00,
2013-05-26 12:25:00,67.3,47.5,30.25,North,0,0.0,0.0,49,0.00,,,0.00,WUHU216HW,2013-05-26 16:25:00,
2013-05-26 12:30:00,67.0,47.8,30.25,North,0,0.0,0.0,50,0.00,,,0.00,WUHU216HW,2013-05-26 16:30:00,
2013-05-26 12:35:00,67.0,47.3,30.25,North,0,0.0,0.0,49,0.00,,,0.00,WUHU216HW,2013-05-26 16:35:00,
2013-05-26 12:40:00,67.3,48.6,30.24,North,0,0.0,0.0,51,0.00,,,0.00,WUHU216HW,2013-05-26 16:40:00,
2013-05-26 12:45:00,67.5,48.3,30.25,North,0,0.0,0.0,50,0.00,,,0.00,WUHU216HW,2013-05-26 16:45:00,
2013-05-26 12:50:00,68.0,49.2,30.25,North,0,0.0,0.0,51,0.00,,,0.00,WUHU216HW,2013-05-26 16:50:00,
2013-05-26 12:55:00,68.4,48.5,30.24,North,0,0.0,0.0,49,0.00,,,0.00,WUHU216HW,2013-05-26 16:55:00,
2013-05-26 13:00:00,68.8,49.4,30.24,North,0,0.0,0.0,50,0.00,,,0.00,WUHU216HW,2013-05-26 17:00:00,
2013-05-26 13:05:00,68.8,48.2,30.24,North,0,0.0,0.0,48,0.00,,,0.00,WUHU216HW,2013-05-26 17:05:00,
2013-05-26 13:10:00,68.9,48.4,30.25,North,0,0.0,0.0,48,0.00,,,0.00,WUHU216HW,2013-05-26 17:10:00,
2013-05-26 13:15:00,69.3,48.2,30.25,North,0,0.0,0.0,47,0.00,,,0.00,WUHU216HW,2013-05-26 17:15:00,
2013-05-26 13:20:00,69.1,48.0,30.24,North,0,0.0,0.0,47,0.00,,,0.00,WUHU216HW,2013-05-26 17:20:00,
2013-05-26 13:25:00,69.3,50.0,30.24,North,0,0.0,0.0,50,0.00,,,0.00,WUHU216HW,2013-05-26 17:25:00,
2013-05-26 13:30:00,69.8,51.0,30.24,North,0,0.0,0.0,51,0.00,,,0.00,WUHU216HW,2013-05-26 17:30:00,
2013-05-26 13:35:00,69.8,50.4,30.23,North,0,0.0,0.0,50,0.00,,,0.00,WUHU216HW,2013-05-26 17:35:00,
2013-05-26 13:40:00,70.2,51.8,30.23,North,0,0.0,0.0,52,0.00,,,0.00,WUHU216HW,2013-05-26 17:40:00,
2013-05-26 13:45:00,70.9,52.9,30.23,North,0,0.0,0.0,53,0.00,,,0.00,WUHU216HW,2013-05-26 17:45:00,
2013-05-26 13:50:00,71.5,52.4,30.22,North,0,0.0,0.0,51,0.00,,,0.00,WUHU216HW,2013-05-26 17:50:00,
2013-05-26 13:55:00,72.0,53.4,30.22,North,0,0.0,0.0,52,0.00,,,0.00,WUHU216HW,2013-05-26 17:55:00,
2013-05-26 14:00:00,72.2,49.5,30.21,North,0,0.0,0.0,45,0.00,,,0.00,WUHU216HW,2013-05-26 18:00:00,
2013-05-26 14:05:00,72.0,51.8,30.21,North,0,0.0,0.0,49,0.00,,,0.00,WUHU216HW,2013-05-26 18:05:00,
2013-05-26 14:10:00,72.4,50.9,30.20,North,0,0.0,0.0,47,0.00,,,0.00,WUHU216HW,2013-05-26 18:10:00,
2013-05-26 14:15:00,72.4,50.9,30.20,North,0,0.0,0.0,47,0.00,,,0.00,WUHU216HW,2013-05-26 18:15:00,
2013-05-26 14:20:00,72.4,50.3,30.20,North,0,0.0,0.0,46,0.00,,,0.00,WUHU216HW,2013-05-26 18:20:00,
2013-05-26 14:25:00,72.5,51.0,30.21,North,0,0.0,0.0,47,0.00,,,0.00,WUHU216HW,2013-05-26 18:25:00,
2013-05-26 14:30:00,72.9,51.4,30.21,North,0,0.0,0.0,47,0.00,,,0.00,WUHU216HW,2013-05-26 18:30:00,
2013-05-26 14:35:00,73.3,48.2,30.21,North,0,0.0,0.0,41,0.00,,,0.00,WUHU216HW,2013-05-26 18:35:00,
2013-05-26 14:40:00,72.7,49.4,30.21,North,0,0.0,0.0,44,0.00,,,0.00,WUHU216HW,2013-05-26 18:40:00,
2013-05-26 14:45:00,72.7,46.3,30.21,North,0,0.0,0.0,39,0.00,,,0.00,WUHU216HW,2013-05-26 18:45:00,
2013-05-26 14:50:00,73.1,49.1,30.20,North,0,0.0,0.0,43,0.00,,,0.00,WUHU216HW,2013-05-26 18:50:00,
2013-05-26 14:55:00,73.4,49.5,30.20,North,0,0.0,0.0,43,0.00,,,0.00,WUHU216HW,2013-05-26 18:55:00,
2013-05-26 15:00:00,73.6,47.9,30.21,North,0,0.0,0.0,40,0.00,,,0.00,WUHU216HW,2013-05-26 19:00:00,
2013-05-26 15:05:00,74.0,49.4,30.20,North,0,0.0,0.0,42,0.00,,,0.00,WUHU216HW,2013-05-26 19:05:00,
2013-05-26 15:10:00,74.3,47.8,30.20,North,0,0.0,0.0,39,0.00,,,0.00,WUHU216HW,2013-05-26 19:10:00,
2013-05-26 15:15:00,74.5,47.2,30.21,North,0,0.0,0.0,38,0.00,,,0.00,WUHU216HW,2013-05-26 19:15:00,
2013-05-26 15:20:00,74.3,47.8,30.21,North,0,0.0,0.0,39,0.00,,,0.00,WUHU216HW,2013-05-26 19:20:00,
2013-05-26 15:25:00,74.2,48.3,30.20,North,0,0.0,0.0,40,0.00,,,0.00,WUHU216HW,2013-05-26 19:25:00,
2013-05-26 15:30:00,74.3,49.2,30.20,North,0,0.0,0.0,41,0.00,,,0.00,WUHU216HW,2013-05-26 19:30:00,
2013-05-26 15:35:00,74.7,49.4,30.20,North,0,0.0,0.0,41,0.00,,,0.00,WUHU216HW,2013-05-26 19:35:00,
2013-05-26 15:40:00,74.2,49.6,30.20,North,0,0.0,0.0,42,0.00,,,0.00,WUHU216HW,2013-05-26 19:40:00,
2013-05-26 15:45:00,74.5,50.5,30.20,North,0,0.0,0.0,43,0.00,,,0.00,WUHU216HW,2013-05-26 19:45:00,
2013-05-26 15:50:00,74.5,49.3,30.20,North,0,0.0,0.0,41,0.00,,,0.00,WUHU216HW,2013-05-26 19:50:00,
2013-05-26 15:55:00,74.5,49.9,30.19,North,0,0.0,0.0,42,0.00,,,0.00,WUHU216HW,2013-05-26 19:55:00,
2013-05-26 16:00:00,74.3,49.2,30.19,North,0,0.0,0.0,41,0.00,,,0.00,WUHU216HW,2013-05-26 20:00:00,
2013-05-26 16:05:00,74.3,49.2,30.19,North,0,0.0,0.0,41,0.00,,,0.00,WUHU216HW,2013-05-26 20:05:00,
2013-05-26 16:10:00,74.3,49.7,30.19,North,0,0.0,0.0,42,0.00,,,0.00,WUHU216HW,2013-05-26 20:10:00,
2013-05-26 16:15:00,74.2,49.6,30.19,North,0,0.0,0.0,42,0.00,,,0.00,WUHU216HW,2013-05-26 20:15:00,
2013-05-26 16:20:00,73.6,49.1,30.19,North,0,0.0,0.0,42,0.00,,,0.00,WUHU216HW,2013-05-26 20:20:00,
2013-05-26 16:25:00,73.4,50.0,30.19,North,0,0.0,0.0,44,0.00,,,0.00,WUHU216HW,2013-05-26 20:25:00,
2013-05-26 16:30:00,73.4,50.0,30.19,North,0,0.0,0.0,44,0.00,,,0.00,WUHU216HW,2013-05-26 20:30:00,
2013-05-26 16:35:00,73.4,49.5,30.19,North,0,0.0,0.0,43,0.00,,,0.00,WUHU216HW,2013-05-26 20:35:00,
2013-05-26 16:40:00,73.1,48.0,30.18,North,0,0.0,0.0,41,0.00,,,0.00,WUHU216HW,2013-05-26 20:40:00,
2013-05-26 16:45:00,73.1,48.6,30.19,North,0,0.0,0.0,42,0.00,,,0.00,WUHU216HW,2013-05-26 20:45:00,
2013-05-26 16:50:00,73.1,49.8,30.19,North,0,0.0,0.0,44,0.00,,,0.00,WUHU216HW,2013-05-26 20:50:00,
2013-05-26 16:55:00,73.1,48.6,30.18,North,0,0.0,0.0,42,0.00,,,0.00,WUHU216HW,2013-05-26 20:55:00,
2013-05-26 17:00:00,72.9,47.8,30.18,North,0,0.0,0.0,41,0.00,,,0.00,WUHU216HW,2013-05-26 21:00:00,
2013-05-26 17:05:00,72.7,48.9,30.19,North,0,0.0,0.0,43,0.00,,,0.00,WUHU216HW,2013-05-26 21:05:00,
2013-05-26 17:10:00,72.7,49.4,30.19,North,0,0.0,0.0,44,0.00,,,0.00,WUHU216HW,2013-05-26 21:10:00,
2013-05-26 17:15:00,72.7,50.1,30.18,North,0,0.0,0.0,45,0.00,,,0.00,WUHU216HW,2013-05-26 21:15:00,
2013-05-26 17:20:00,72.7,49.4,30.18,North,0,0.0,0.0,44,0.00,,,0.00,WUHU216HW,2013-05-26 21:20:00,
2013-05-26 17:25:00,72.7,49.4,30.18,North,0,0.0,0.0,44,0.00,,,0.00,WUHU216HW,2013-05-26 21:25:00,
2013-05-26 17:30:00,72.5,49.2,30.19,North,0,0.0,0.0,44,0.00,,,0.00,WUHU216HW,2013-05-26 21:30:00,
2013-05-26 17:35:00,72.5,46.9,30.19,North,0,0.0,0.0,40,0.00,,,0.00,WUHU216HW,2013-05-26 21:35:00,
2013-05-26 17:40:00,72.4,48.5,30.18,North,0,0.0,0.0,43,0.00,,,0.00,WUHU216HW,2013-05-26 21:40:00,
2013-05-26 17:45:00,72.2,49.5,30.18,North,0,0.0,0.0,45,0.00,,,0.00,WUHU216HW,2013-05-26 21:45:00,
2013-05-26 17:50:00,72.2,49.5,30.19,North,0,0.0,0.0,45,0.00,,,0.00,WUHU216HW,2013-05-26 21:50:00,
2013-05-26 17:55:00,72.2,50.8,30.19,North,0,0.0,0.0,47,0.00,,,0.00,WUHU216HW,2013-05-26 21:55:00,
2013-05-26 18:00:00,72.5,52.2,30.18,North,0,0.0,0.0,49,0.00,,,0.00,WUHU216HW,2013-05-26 22:00:00,
2013-05-26 18:05:00,72.4,52.7,30.18,North,0,0.0,0.0,50,0.00,,,0.00,WUHU216HW,2013-05-26 22:05:00,
2013-05-26 18:10:00,72.4,52.7,30.18,North,0,0.0,0.0,50,0.00,,,0.00,WUHU216HW,2013-05-26 22:10:00,
2013-05-26 18:15:00,72.0,51.1,30.18,North,0,0.0,0.0,48,0.00,,,0.00,WUHU216HW,2013-05-26 22:15:00,
2013-05-26 18:20:00,71.5,51.3,30.19,North,0,0.0,0.0,49,0.00,,,0.00,WUHU216HW,2013-05-26 22:20:00,
2013-05-26 18:25:00,71.3,51.7,30.19,North,0,0.0,0.0,50,0.00,,,0.00,WUHU216HW,2013-05-26 22:25:00,
2013-05-26 18:30:00,71.5,52.4,30.19,North,0,0.0,0.0,51,0.00,,,0.00,WUHU216HW,2013-05-26 22:30:00,
2013-05-26 18:35:00,71.3,52.8,30.19,North,0,0.0,0.0,52,0.00,,,0.00,WUHU216HW,2013-05-26 22:35:00,
2013-05-26 18:40:00,71.3,53.2,30.19,North,0,0.0,0.0,53,0.00,,,0.00,WUHU216HW,2013-05-26 22:40:00,
2013-05-26 18:45:00,71.3,53.2,30.19,North,0,0.0,0.0,53,0.00,,,0.00,WUHU216HW,2013-05-26 22:45:00,
2013-05-26 18:50:00,71.1,53.0,30.18,North,0,0.0,0.0,53,0.00,,,0.00,WUHU216HW,2013-05-26 22:50:00,
2013-05-26 18:55:00,70.9,53.4,30.19,North,0,0.0,0.0,54,0.00,,,0.00,WUHU216HW,2013-05-26 22:55:00,
2013-05-26 19:00:00,70.7,53.2,30.19,North,0,0.0,0.0,54,0.00,,,0.00,WUHU216HW,2013-05-26 23:00:00,
2013-05-26 19:05:00,70.6,53.1,30.19,North,0,0.0,0.0,54,0.00,,,0.00,WUHU216HW,2013-05-26 23:05:00,
2013-05-26 19:10:00,70.4,52.9,30.19,North,0,0.0,0.0,54,0.00,,,0.00,WUHU216HW,2013-05-26 23:10:00,
2013-05-26 19:15:00,70.4,52.9,30.19,North,0,0.0,0.0,54,0.00,,,0.00,WUHU216HW,2013-05-26 23:15:00,
2013-05-26 19:20:00,70.2,53.3,30.19,North,0,0.0,0.0,55,0.00,,,0.00,WUHU216HW,2013-05-26 23:20:00,
2013-05-26 19:25:00,70.0,53.1,30.19,North,0,0.0,0.0,55,0.00,,,0.00,WUHU216HW,2013-05-26 23:25:00,
2013-05-26 19:30:00,69.7,52.7,30.19,North,0,0.0,0.0,55,0.00,,,0.00,WUHU216HW,2013-05-26 23:30:00,
2013-05-26 19:35:00,69.5,52.6,30.19,North,0,0.0,0.0,55,0.00,,,0.00,WUHU216HW,2013-05-26 23:35:00,
2013-05-26 19:40:00,69.3,52.9,30.19,North,0,0.0,0.0,56,0.00,,,0.00,WUHU216HW,2013-05-26 23:40:00,
2013-05-26 19:45:00,69.1,52.8,30.19,North,0,0.0,0.0,56,0.00,,,0.00,WUHU216HW,2013-05-26 23:45:00,
2013-05-26 19:50:00,68.8,52.4,30.19,North,0,0.0,0.0,56,0.00,,,0.00,WUHU216HW,2013-05-26 23:50:00,
2013-05-26 19:55:00,68.4,52.0,30.19,North,0,0.0,0.0,56,0.00,,,0.00,WUHU216HW,2013-05-26 23:55:00,
2013-05-26 20:00:00,68.2,51.8,30.19,North,0,0.0,0.0,56,0.00,,,0.00,WUHU216HW,2013-05-27 00:00:00,
2013-05-26 20:05:00,67.9,51.6,30.19,North,0,0.0,0.0,56,0.00,,,0.00,WUHU216HW,2013-05-27 00:05:00,
2013-05-26 20:10:00,67.5,51.2,30.19,North,0,0.0,0.0,56,0.00,,,0.00,WUHU216HW,2013-05-27 00:10:00,
2013-05-26 20:15:00,67.1,50.9,30.19,North,0,0.0,0.0,56,0.00,,,0.00,WUHU216HW,2013-05-27 00:15:00,
2013-05-26 20:20:00,66.6,50.4,30.19,North,0,0.0,0.0,56,0.00,,,0.00,WUHU216HW,2013-05-27 00:20:00,
2013-05-26 20:25:00,66.2,50.0,30.19,North,0,0.0,0.0,56,0.00,,,0.00,WUHU216HW,2013-05-27 00:25:00,
2013-05-26 20:30:00,65.9,49.7,30.20,North,0,0.0,0.0,56,0.00,,,0.00,WUHU216HW,2013-05-27 00:30:00,
2013-05-26 20:35:00,65.5,48.9,30.20,North,0,0.0,0.0,55,0.00,,,0.00,WUHU216HW,2013-05-27 00:35:00,
2013-05-26 20:40:00,65.3,48.7,30.20,North,0,0.0,0.0,55,0.00,,,0.00,WUHU216HW,2013-05-27 00:40:00,
2013-05-26 20:44:00,65.0,48.3,30.20,North,0,0.0,0.0,55,0.00,,,0.00,WUHU216HW,2013-05-27 00:44:00,
2013-05-26 20:49:00,64.3,47.2,30.20,North,0,0.0,0.0,54,0.00,,,0.00,WUHU216HW,2013-05-27 00:49:00,
2013-05-26 20:54:00,63.7,46.6,30.20,North,0,0.0,0.0,54,0.00,,,0.00,WUHU216HW,2013-05-27 00:54:00,
2013-05-26 20:59:00,63.7,46.2,30.20,North,0,0.0,0.0,53,0.00,,,0.00,WUHU216HW,2013-05-27 00:59:00,
2013-05-26 21:04:00,63.5,46.0,30.20,North,0,0.0,0.0,53,0.00,,,0.00,WUHU216HW,2013-05-27 01:04:00,
2013-05-26 21:09:00,63.4,45.4,30.20,North,0,0.0,0.0,52,0.00,,,0.00,WUHU216HW,2013-05-27 01:09:00,
2013-05-26 21:14:00,63.0,45.0,30.20,North,0,0.0,0.0,52,0.00,,,0.00,WUHU216HW,2013-05-27 01:14:00,
2013-05-26 21:19:00,62.8,44.4,30.21,North,0,0.0,0.0,51,0.00,,,0.00,WUHU216HW,2013-05-27 01:19:00,
2013-05-26 21:24:00,62.6,43.7,30.21,North,0,0.0,0.0,50,0.00,,,0.00,WUHU216HW,2013-05-27 01:24:00,
2013-05-26 21:29:00,62.5,43.6,30.21,North,0,0.0,0.0,50,0.00,,,0.00,WUHU216HW,2013-05-27 01:29:00,
2013-05-26 21:34:00,62.3,42.8,30.21,North,0,0.0,0.0,49,0.00,,,0.00,WUHU216HW,2013-05-27 01:34:00,
2013-05-26 21:39:00,61.9,41.9,30.21,North,0,0.0,0.0,48,0.00,,,0.00,WUHU216HW,2013-05-27 01:39:00,
2013-05-26 21:44:00,61.7,40.6,30.22,North,0,0.0,0.0,46,0.00,,,0.00,WUHU216HW,2013-05-27 01:44:00,
2013-05-26 21:49:00,61.6,39.9,30.21,North,0,0.0,0.0,45,0.00,,,0.00,WUHU216HW,2013-05-27 01:49:00,
2013-05-26 21:54:00,61.4,39.2,30.22,North,0,0.0,0.0,44,0.00,,,0.00,WUHU216HW,2013-05-27 01:54:00,
2013-05-26 21:59:00,61.2,38.4,30.22,North,0,0.0,0.0,43,0.00,,,0.00,WUHU216HW,2013-05-27 01:59:00,
2013-05-26 22:04:00,61.2,37.3,30.22,North,0,0.0,0.0,41,0.00,,,0.00,WUHU216HW,2013-05-27 02:04:00,
2013-05-26 22:09:00,61.0,36.6,30.22,North,0,0.0,0.0,40,0.00,,,0.00,WUHU216HW,2013-05-27 02:09:00,
2013-05-26 22:14:00,60.8,34.9,30.22,North,0,0.0,0.0,38,0.00,,,0.00,WUHU216HW,2013-05-27 02:14:00,
2013-05-26 22:19:00,60.8,34.9,30.22,North,0,0.0,0.0,38,0.00,,,0.00,WUHU216HW,2013-05-27 02:19:00,
2013-05-26 22:43:00,59.9,29.9,30.22,North,0,0.0,0.0,32,0.00,,,0.00,WUHU216HW,2013-05-27 02:43:00,
2013-05-26 22:48:00,59.6,29.6,30.22,North,0,0.0,0.0,32,0.00,,,0.00,WUHU216HW,2013-05-27 02:48:00,
2013-05-26 22:53:00,59.4,28.0,30.22,North,0,0.0,0.0,30,0.00,,,0.00,WUHU216HW,2013-05-27 02:53:00,
2013-05-26 22:58:00,59.4,28.0,30.22,North,0,0.0,0.0,30,0.00,,,0.00,WUHU216HW,2013-05-27 02:58:00,
2013-05-26 23:03:00,59.2,24.9,30.23,North,0,0.0,0.0,27,0.00,,,0.00,WUHU216HW,2013-05-27 03:03:00,
2013-05-26 23:08:00,59.0,22.9,30.23,North,0,0.0,0.0,25,0.00,,,0.00,WUHU216HW,2013-05-27 03:08:00,
2013-05-26 23:13:00,59.0,22.9,30.23,North,0,0.0,0.0,25,0.00,,,0.00,WUHU216HW,2013-05-27 03:13:00,
2013-05-26 23:18:00,58.9,21.8,30.23,North,0,0.0,0.0,24,0.00,,,0.00,WUHU216HW,2013-05-27 03:18:00,
2013-05-26 23:23:00,58.7,20.6,30.23,North,0,0.0,0.0,23,0.00,,,0.00,WUHU216HW,2013-05-27 03:23:00,
2013-05-26 23:28:00,58.5,19.5,30.23,North,0,0.0,0.0,22,0.00,,,0.00,WUHU216HW,2013-05-27 03:28:00,
2013-05-26 23:33:00,58.5,19.5,30.22,North,0,0.0,0.0,22,0.00,,,0.00,WUHU216HW,2013-05-27 03:33:00,
2013-05-26 23:38:00,58.3,18.4,30.23,North,0,0.0,0.0,21,0.00,,,0.00,WUHU216HW,2013-05-27 03:38:00,
2013-05-26 23:43:00,58.3,18.4,30.22,North,0,0.0,0.0,21,0.00,,,0.00,WUHU216HW,2013-05-27 03:43:00,
2013-05-26 23:48:00,58.3,18.4,30.22,North,0,0.0,0.0,21,0.00,,,0.00,WUHU216HW,2013-05-27 03:48:00,